Wind_Speed
33 33 33 32 32 31 29 28 28 27 27 26 26 25 25 24 22 21 19 18 18 17 17 17 16 16 15 15 15 14 14 14 14 14 14 15 15 15 16 16 16 16 16 16 16 16 16 16 16
34 34 34 34 33 32 29 29 29 28 28 27 27 26 26 25 22 21 20 19 19 19 19 19 18 17 17 17 16 16 15 15 16 16 16 17 17 17 17 17 17 17 17 17 17 18 18 18 19
35 35 35 34 33 31 30 30 29 29 29 28 28 27 26 25 23 22 21 21 20 20 20 20 19 18 18 18 18 18 17 17 17 17 17 18 18 18 18 18 18 18 19 19 19 20 20 20 20
36 36 36 35 33 31 31 30 30 29 29 29 29 28 27 26 25 24 23 22 22 22 21 21 20 20 20 19 19 19 19 19 19 19 19 19 19 19 19 19 19 19 20 20 21 21 21 22 22
37 37 37 35 33 32 32 31 31 30 29 29 29 29 28 27 26 25 24 24 23 23 22 22 22 22 21 21 20 20 20 20 20 20 20 20 20 20 20 20 20 21 21 22 22 23 23 23 23
38 37 36 34 33 33 33 32 31 31 30 30 30 29 28 28 27 26 26 25 25 24 24 23 23 23 23 22 22 21 21 21 21 21 21 21 21 21 21 21 22 22 23 23 23 24 24 24 24
38 37 36 34 34 34 33 33 32 32 31 30 30 29 28 28 28 27 27 27 26 25 25 24 24 24 23 23 23 22 22 22 22 22 22 22 22 22 22 22 23 23 23 23 24 24 24 25 25
38 38 36 35 34 34 33 33 33 33 32 31 30 29 28 29 28 28 27 27 26 26 25 25 25 24 24 23 23 23 23 22 22 22 22 22 22 22 23 23 23 24 24 24 24 25 25 25 26
39 38 36 34 35 34 35 34 34 33 33 32 31 30 29 29 28 27 27 27 27 26 26 25 25 25 24 24 24 24 23 23 23 23 23 23 23 24 24 24 24 25 25 25 26 26 27 27 27
39 38 35 35 35 35 35 35 34 34 33 32 31 30 30 29 28 27 27 27 27 26 26 26 26 25 25 24 24 24 24 24 24 24 24 25 25 25 26 26 26 26 27 27 27 28 28 28 28
39 37 35 36 35 35 35 35 34 34 33 32 31 31 30 29 28 28 27 27 27 26 26 26 26 26 26 25 25 25 25 25 25 25 25 26 26 27 27 27 27 28 28 28 28 28 28 28 29
40 38 37 37 36 35 35 35 34 33 32 32 31 31 30 29 29 28 28 28 27 27 26 26 27 27 27 26 26 26 26 26 26 27 27 27 27 28 28 28 28 28 28 28 28 28 29 29 30
40 39 39 38 38 36 36 35 34 33 33 32 32 31 30 30 29 29 29 29 28 28 27 27 28 28 27 27 27 27 27 27 27 28 28 28 29 29 29 29 29 28 28 28 29 30 31 32 32
40 40 40 40 39 38 37 36 35 33 33 33 32 31 30 30 29 29 29 29 29 29 28 27 27 27 28 28 28 28 28 28 28 29 29 30 30 30 29 29 29 29 30 30 31 32 32 33 34
41 41 41 40 39 39 38 37 35 33 34 33 32 32 31 30 30 29 29 28 28 28 27 28 28 27 27 27 28 29 29 29 29 30 30 30 30 29 29 29 30 30 31 32 32 33 34 35 36
42 42 42 40 40 39 40 37 35 35 35 33 33 32 31 30 29 29 29 28 27 27 27 27 27 27 27 28 28 28 29 29 30 30 30 30 30 30 29 30 31 32 33 33 34 35 36 37 37
45 43 42 40 41 40 40 37 36 36 35 34 34 33 32 31 30 29 29 29 28 28 28 27 27 27 27 28 28 29 29 30 30 31 31 30 31 31 31 32 32 33 34 35 36 37 38 39 39
43 41 41 41 41 41 40 38 37 37 36 35 34 34 33 32 31 30 30 30 29 29 29 29 29 29 28 28 29 29 30 30 30 30 31 31 32 32 33 34 34 35 36 37 38 38 39 40 41
43 42 42 42 42 42 41 40 39 39 37 36 35 34 33 32 32 32 31 31 30 30 30 30 30 30 29 30 30 30 30 30 31 31 32 32 33 33 34 35 36 37 37 38 39 40 41 42 43
43 44 43 43 43 42 42 42 41 41 39 38 37 36 35 34 33 32 32 31 31 30 30 31 31 31 30 30 31 31 31 31 32 33 33 33 34 35 35 36 37 38 39 40 41 42 43 44 46
43 43 43 42 43 43 43 44 43 42 40 39 38 37 36 35 34 33 32 32 31 31 31 31 32 32 32 32 32 32 32 33 33 34 35 35 36 36 37 37 39 40 41 42 43 44 45 46 47
42 41 42 43 44 44 44 45 43 42 41 40 39 37 36 36 35 34 33 32 32 32 32 32 33 33 33 33 33 33 33 34 35 35 36 36 37 38 38 39 40 41 42 43 44 46 47 49 50
41 40 41 43 44 46 45 46 43 42 41 40 39 38 37 36 36 35 34 33 33 33 33 33 33 34 34 34 34 34 35 35 36 36 37 38 38 39 40 41 41 42 44 45 46 48 49 51 52
42 41 42 43 44 47 46 46 45 43 40 39 38 38 37 37 36 36 35 34 34 34 34 34 34 34 35 35 35 35 36 36 37 37 38 39 40 40 41 42 43 44 45 46 48 49 51 53 54
44 43 43 44 46 47 45 46 45 43 40 38 38 38 37 37 37 36 35 35 34 34 34 34 35 35 35 35 36 36 37 37 38 38 39 40 40 42 43 44 45 46 47 48 49 51 53 54 54
44 44 44 45 46 45 45 46 45 42 40 38 38 38 38 37 37 36 35 35 34 35 35 35 35 36 36 36 37 37 38 38 39 40 41 41 42 43 44 45 46 47 49 50 51 52 53 54 54
44 44 43 44 45 44 45 45 44 42 40 39 38 38 37 37 37 37 36 35 35 35 35 36 36 37 37 37 38 39 39 40 40 41 42 42 43 43 45 46 47 48 50 52 53 54 54 53 53
43 42 43 45 45 45 44 44 42 40 39 39 38 38 37 37 37 37 36 36 35 36 36 37 38 38 38 39 39 39 40 41 42 42 42 43 44 45 46 47 49 50 52 53 53 53 53 52 52
44 44 44 44 45 45 45 43 42 40 39 38 37 37 37 38 38 38 37 37 37 37 37 38 38 39 39 39 40 40 41 42 42 43 43 44 45 46 47 49 50 51 52 53 53 53 52 52 52
44 44 43 44 45 45 44 43 42 41 39 39 38 38 38 38 38 38 38 38 38 38 38 39 39 39 40 40 41 41 42 42 43 44 44 45 46 48 49 50 51 52 52 52 52 52 52 52 51
Wind_Direction
234 233 233 234 235 236 236 235 236 237 238 239 241 242 243 245 246 248 247 246 245 245 246 246 247 247 248 249 250 250 252 253 256 259 263 265 267 268 270 272 272 272 272 273 273 274 275 276 277
234 233 233 233 234 236 235 235 236 237 238 239 240 242 243 244 244 246 246 244 243 243 244 246 247 247 247 248 249 250 252 254 256 260 264 266 268 269 270 271 270 271 271 272 273 274 275 276 277
233 233 233 233 234 235 235 235 236 237 237 238 239 240 242 244 244 244 244 244 243 244 244 245 246 247 247 248 249 251 253 255 258 260 264 266 267 268 269 270 270 270 271 272 274 275 276 276 277
232 232 233 233 233 233 234 235 235 236 237 238 239 240 241 242 243 244 244 244 244 244 245 246 247 247 247 248 251 253 255 257 259 261 264 266 267 267 268 269 270 271 272 273 274 275 276 276 278
232 232 233 232 232 233 234 235 235 235 237 238 239 240 240 241 242 242 243 243 245 246 246 247 247 248 249 250 251 253 256 258 260 262 264 265 267 268 268 269 271 272 274 274 274 275 276 277 278
232 233 234 233 232 233 234 235 235 236 237 238 239 240 241 241 242 242 243 244 245 246 247 248 248 248 250 251 252 254 257 259 260 261 263 264 266 268 269 270 271 273 274 275 275 276 277 277 278
233 233 234 232 232 233 233 235 235 236 237 237 238 239 240 241 241 242 244 244 245 246 247 248 248 249 250 252 254 256 257 258 259 261 262 264 266 268 270 271 272 274 275 276 277 278 278 279 280
232 232 232 230 231 232 233 235 235 236 237 237 237 238 239 240 241 242 243 244 244 245 246 247 248 249 251 252 254 256 257 258 259 260 262 264 266 268 270 272 273 274 275 277 278 279 280 280 281
231 232 231 231 231 232 234 235 235 236 237 237 237 237 238 239 240 241 242 243 244 244 245 246 248 250 251 253 254 255 257 258 259 260 262 263 266 268 270 272 274 275 276 277 278 279 280 280 281
230 231 230 231 231 232 233 235 235 236 237 237 238 238 237 238 238 238 240 242 243 244 244 245 247 250 251 252 254 255 257 258 259 261 263 264 266 268 271 273 274 275 277 278 279 279 280 281 281
230 231 230 230 231 231 232 234 235 236 236 236 237 237 237 238 238 238 238 240 242 243 244 246 247 249 250 252 254 256 257 259 260 262 264 266 268 270 272 273 274 276 277 278 279 280 281 281 282
230 229 229 230 231 231 232 233 234 235 235 235 236 237 237 237 237 237 238 239 241 243 245 246 247 248 250 252 255 256 258 260 261 263 265 267 269 271 272 273 275 276 277 278 279 280 281 282 283
230 229 229 230 230 231 231 232 233 233 234 234 234 235 236 236 237 238 238 239 241 244 246 248 249 250 251 252 254 256 258 260 262 264 266 268 270 271 272 273 274 276 277 278 280 281 281 282 283
230 229 229 229 230 231 231 232 233 232 233 233 234 234 235 235 236 238 239 241 242 244 246 248 250 250 250 251 253 256 258 260 263 265 267 269 271 272 272 273 274 275 277 278 280 281 282 283 284
229 228 228 228 230 231 231 231 231 232 233 233 234 234 235 236 236 238 240 241 242 243 245 247 248 249 250 252 254 256 259 261 263 266 268 269 270 271 273 273 274 276 277 279 280 281 283 284 286
228 228 228 227 230 231 232 230 230 231 232 233 234 234 234 235 236 237 238 240 242 244 246 247 248 248 250 253 255 258 260 262 264 267 268 269 270 272 273 275 275 276 277 279 280 282 284 285 286
227 228 228 227 229 231 232 230 230 231 232 232 233 234 235 235 236 237 239 241 242 244 246 247 248 249 251 254 257 260 262 264 265 267 268 269 271 272 274 276 277 278 278 280 282 283 285 286 287
228 229 229 229 229 230 231 230 230 231 232 232 233 234 235 236 237 239 240 241 243 244 245 247 249 251 253 255 258 260 263 265 267 268 269 270 271 273 275 276 278 279 280 281 283 284 286 287 287
228 228 228 229 230 231 231 230 230 231 232 233 234 235 235 236 238 239 241 243 244 245 246 247 250 252 254 255 258 260 263 265 267 268 270 271 273 274 276 277 279 281 282 283 283 284 286 287 288
228 228 229 229 230 231 231 231 231 232 232 233 234 236 236 237 239 241 242 244 246 246 247 248 250 253 255 256 258 261 263 266 267 269 271 272 274 275 276 278 280 281 283 284 284 285 287 288 289
229 230 230 231 231 231 231 230 230 231 233 233 235 236 237 238 240 241 243 245 246 247 248 249 251 253 255 257 259 261 264 266 268 270 272 273 275 276 278 279 281 282 283 285 286 287 288 288 290
229 230 230 231 232 232 232 232 230 232 233 233 235 236 237 239 241 242 243 245 246 247 248 250 252 254 256 258 260 262 264 267 268 271 273 274 276 277 279 281 282 283 284 286 287 288 289 290 291
229 229 231 232 233 234 233 234 231 232 233 233 235 237 238 240 241 242 243 244 245 247 248 250 252 255 257 259 261 263 265 268 270 272 274 276 277 278 280 281 283 285 286 287 288 289 290 291 292
227 228 230 232 233 235 233 236 233 232 233 234 236 237 238 239 240 242 243 244 246 248 250 252 254 256 258 260 262 264 266 269 271 273 275 276 278 279 280 282 284 286 287 289 290 291 291 292 292
225 226 228 230 232 235 234 236 235 233 233 234 235 236 238 239 240 242 244 245 247 249 251 252 254 256 258 260 262 265 268 270 272 274 275 277 279 280 281 283 284 286 287 289 291 292 292 292 293
226 228 230 233 234 236 235 237 236 235 235 235 236 237 238 240 241 242 244 245 246 248 250 252 254 256 259 261 263 266 268 270 272 274 276 278 279 281 282 283 285 286 287 289 290 292 293 293 293
226 228 230 233 235 236 236 237 237 237 237 237 238 238 239 240 242 243 244 245 246 248 250 252 255 257 260 262 264 267 269 271 273 275 277 278 280 281 282 284 286 287 288 289 290 292 293 293 293
227 229 230 231 233 235 237 237 237 237 238 238 239 239 240 241 243 243 244 246 247 249 250 253 255 258 261 263 265 267 269 272 274 276 277 278 280 282 284 285 287 288 289 290 291 292 293 293 294
226 227 229 232 234 236 237 238 238 238 238 239 239 240 241 242 243 244 245 247 248 249 252 254 257 259 262 264 266 268 270 272 275 276 277 279 280 282 284 286 287 289 290 290 291 292 293 293 293
227 229 231 231 233 236 238 240 240 240 240 241 241 241 242 243 244 246 247 248 250 251 253 255 258 260 262 264 266 269 271 273 275 276 277 279 281 283 285 286 288 289 290 290 291 292 293 293 293
Height
5815 5819 5822 5825 5828 5830 5833 5836 5837 5839 5841 5843 5845 5846 5848 5851 5854 5857 5857 5857 5858 5859 5860 5861 5862 5862 5863 5864 5865 5865 5866 5867 5867 5868 5868 5868 5868 5868 5868 5868 5868 5868 5867 5867 5867 5866 5866 5865 5865
5810 5813 5817 5819 5822 5825 5829 5831 5833 5835 5837 5839 5841 5842 5844 5846 5849 5851 5852 5853 5854 5855 5856 5858 5859 5860 5860 5861 5862 5863 5864 5864 5865 5865 5866 5866 5866 5866 5866 5866 5865 5865 5865 5864 5864 5864 5863 5863 5862
5805 5808 5811 5814 5817 5821 5824 5826 5829 5830 5832 5834 5836 5838 5841 5843 5845 5847 5848 5850 5851 5852 5853 5854 5855 5856 5857 5858 5859 5860 5861 5862 5862 5862 5863 5863 5863 5863 5863 5863 5862 5862 5862 5861 5861 5861 5860 5860 5859
5799 5802 5805 5809 5813 5816 5819 5821 5823 5826 5828 5830 5832 5834 5836 5839 5841 5843 5844 5846 5847 5848 5849 5851 5852 5853 5854 5855 5856 5857 5858 5858 5859 5859 5860 5860 5860 5860 5860 5859 5859 5859 5859 5858 5858 5857 5857 5856 5856
5792 5796 5799 5803 5807 5811 5813 5816 5818 5821 5823 5825 5827 5830 5832 5834 5836 5838 5840 5841 5843 5844 5846 5847 5848 5849 5850 5852 5853 5854 5854 5855 5855 5856 5856 5856 5856 5856 5856 5856 5856 5856 5855 5855 5854 5854 5853 5852 5852
5786 5790 5794 5798 5802 5805 5807 5810 5812 5815 5818 5820 5823 5825 5827 5830 5832 5834 5835 5837 5839 5840 5842 5843 5844 5845 5847 5848 5849 5850 5851 5851 5852 5852 5852 5852 5853 5852 5852 5852 5852 5852 5851 5851 5850 5850 5849 5848 5848
5781 5784 5788 5793 5796 5798 5802 5804 5807 5810 5812 5815 5818 5820 5822 5825 5827 5829 5831 5832 5834 5836 5837 5839 5840 5841 5843 5844 5845 5846 5847 5847 5848 5848 5848 5849 5849 5849 5849 5848 5848 5848 5847 5847 5846 5845 5845 5844 5843
5773 5778 5781 5786 5789 5793 5796 5798 5801 5804 5807 5810 5812 5815 5818 5820 5822 5824 5826 5828 5830 5831 5833 5835 5836 5837 5838 5840 5841 5842 5842 5843 5844 5844 5844 5845 5845 5845 5844 5844 5844 5843 5843 5842 5842 5841 5840 5839 5838
5766 5772 5775 5780 5783 5787 5789 5791 5794 5797 5801 5804 5807 5810 5812 5814 5817 5819 5821 5823 5825 5827 5829 5830 5831 5833 5834 5835 5836 5837 5838 5839 5839 5840 5840 5840 5840 5840 5840 5840 5839 5839 5838 5838 5837 5836 5835 5834 5833
5759 5764 5771 5774 5777 5780 5782 5785 5788 5791 5795 5798 5801 5804 5806 5809 5811 5814 5816 5818 5820 5822 5824 5825 5827 5828 5829 5831 5832 5833 5833 5834 5834 5835 5835 5835 5836 5836 5835 5835 5835 5834 5833 5833 5832 5831 5830 5829 5828
5753 5759 5764 5766 5769 5773 5776 5779 5782 5785 5789 5792 5795 5798 5801 5803 5806 5808 5811 5813 5815 5817 5819 5820 5822 5823 5824 5826 5827 5828 5829 5829 5830 5830 5830 5830 5830 5830 5830 5830 5829 5829 5828 5827 5826 5825 5824 5823 5822
5746 5752 5756 5759 5762 5766 5769 5772 5776 5779 5783 5786 5789 5792 5795 5798 5800 5803 5805 5808 5810 5812 5814 5815 5817 5818 5819 5821 5822 5823 5824 5824 5824 5825 5825 5825 5825 5825 5824 5824 5824 5823 5822 5822 5821 5820 5818 5817 5816
5738 5744 5748 5751 5755 5759 5762 5766 5769 5773 5776 5779 5782 5785 5789 5792 5794 5797 5800 5802 5804 5806 5808 5810 5811 5813 5814 5815 5817 5817 5818 5819 5819 5819 5819 5819 5819 5819 5819 5818 5818 5817 5816 5816 5815 5814 5812 5811 5809
5731 5736 5740 5743 5747 5751 5755 5759 5763 5767 5769 5772 5776 5779 5782 5786 5788 5791 5794 5796 5799 5801 5802 5804 5806 5807 5809 5810 5811 5812 5813 5813 5814 5814 5814 5814 5813 5813 5813 5812 5812 5811 5810 5809 5808 5807 5806 5804 5802
5722 5727 5731 5736 5740 5744 5748 5752 5757 5761 5763 5766 5770 5773 5776 5779 5782 5785 5788 5790 5792 5794 5796 5798 5800 5801 5803 5804 5805 5806 5807 5807 5808 5808 5807 5807 5807 5807 5806 5806 5805 5805 5804 5803 5801 5800 5799 5797 5795
5713 5718 5723 5729 5732 5736 5741 5746 5751 5753 5756 5760 5763 5766 5769 5773 5776 5779 5782 5784 5786 5788 5791 5792 5794 5795 5797 5798 5799 5800 5801 5801 5801 5801 5801 5801 5801 5800 5800 5799 5799 5798 5797 5795 5794 5793 5791 5789 5787
5704 5709 5716 5721 5725 5728 5732 5738 5743 5745 5749 5753 5756 5759 5763 5766 5770 5773 5775 5778 5780 5782 5784 5786 5788 5789 5791 5792 5793 5794 5794 5795 5795 5795 5795 5794 5794 5794 5793 5793 5791 5790 5789 5788 5786 5785 5783 5781 5778
5698 5703 5708 5713 5717 5720 5725 5730 5735 5738 5742 5746 5749 5753 5756 5760 5764 5766 5769 5771 5774 5776 5778 5780 5781 5783 5785 5786 5787 5787 5787 5788 5788 5788 5788 5787 5787 5787 5786 5785 5784 5783 5781 5780 5778 5776 5774 5771 5769
5690 5694 5699 5705 5709 5713 5717 5722 5726 5730 5734 5738 5742 5746 5750 5753 5757 5759 5762 5765 5767 5770 5772 5773 5775 5777 5778 5779 5780 5780 5781 5781 5781 5781 5781 5780 5780 5779 5778 5777 5776 5775 5773 5771 5769 5767 5765 5762 5759
5680 5685 5691 5696 5700 5704 5708 5713 5718 5722 5727 5731 5735 5739 5743 5746 5749 5752 5755 5758 5760 5763 5765 5766 5768 5770 5771 5772 5773 5773 5774 5774 5774 5773 5773 5773 5772 5771 5770 5769 5768 5766 5764 5762 5760 5757 5755 5752 5748
5672 5678 5683 5688 5691 5694 5699 5704 5709 5714 5718 5723 5727 5731 5735 5738 5742 5745 5748 5750 5753 5755 5757 5759 5760 5762 5763 5764 5765 5766 5766 5766 5766 5766 5765 5764 5764 5763 5761 5760 5759 5757 5755 5752 5750 5747 5744 5741 5738
5664 5670 5674 5678 5681 5685 5690 5694 5702 5706 5710 5715 5720 5724 5727 5731 5734 5737 5740 5743 5745 5748 5749 5751 5753 5754 5755 5756 5757 5758 5758 5758 5758 5757 5757 5756 5755 5754 5752 5751 5749 5747 5745 5742 5740 5737 5733 5730 5727
5656 5661 5665 5668 5672 5676 5681 5685 5693 5697 5702 5708 5712 5716 5720 5723 5726 5729 5732 5735 5737 5739 5741 5743 5745 5746 5747 5748 5749 5750 5750 5750 5749 5749 5748 5747 5746 5744 5743 5741 5739 5737 5735 5732 5729 5726 5722 5718 5714
5646 5651 5655 5658 5661 5666 5673 5676 5683 5689 5695 5700 5704 5708 5712 5715 5718 5721 5724 5727 5729 5731 5733 5735 5736 5738 5739 5740 5740 5741 5741 5741 5741 5740 5739 5738 5737 5735 5733 5731 5729 5727 5724 5721 5718 5714 5710 5706 5701
5635 5641 5645 5647 5650 5656 5664 5666 5674 5682 5687 5692 5696 5699 5703 5706 5709 5712 5715 5718 5721 5723 5725 5726 5728 5729 5730 5731 5731 5732 5732 5732 5731 5731 5730 5728 5727 5725 5723 5721 5719 5716 5713 5710 5706 5702 5698 5693 5689
5627 5632 5637 5641 5644 5650 5654 5657 5666 5673 5678 5682 5687 5690 5694 5697 5701 5704 5707 5710 5712 5714 5716 5717 5719 5720 5721 5722 5722 5723 5723 5722 5722 5721 5720 5718 5717 5715 5712 5710 5708 5705 5702 5698 5694 5690 5686 5681 5676
5618 5622 5629 5633 5636 5640 5644 5650 5657 5662 5668 5673 5678 5681 5685 5688 5692 5695 5698 5701 5703 5705 5707 5708 5710 5711 5712 5712 5713 5713 5713 5712 5712 5711 5709 5707 5705 5703 5701 5699 5696 5693 5690 5686 5682 5678 5673 5668 5664
5609 5615 5618 5622 5626 5630 5636 5641 5648 5654 5659 5664 5668 5672 5676 5679 5682 5686 5689 5692 5694 5696 5697 5699 5700 5701 5702 5703 5703 5703 5703 5702 5701 5700 5698 5696 5694 5692 5690 5688 5685 5681 5677 5673 5669 5665 5660 5656 5651
5600 5605 5609 5614 5618 5623 5627 5635 5639 5645 5650 5655 5659 5662 5666 5670 5673 5676 5679 5682 5684 5686 5688 5689 5690 5691 5692 5693 5693 5693 5692 5691 5690 5689 5687 5686 5683 5681 5679 5676 5673 5669 5665 5661 5657 5652 5648 5644 5639
5591 5596 5601 5606 5610 5615 5620 5628 5630 5635 5640 5645 5649 5653 5656 5660 5663 5666 5669 5672 5674 5676 5678 5679 5680 5681 5682 5682 5682 5682 5681 5680 5679 5678 5676 5674 5672 5670 5667 5664 5660 5657 5652 5648 5644 5640 5636 5631 5627